Nellis AFB, NV

8:07 AM PST on December 10, 2019 (GMT -0800)
Nellis Air Force Base

Weather History for KLSV - September, 2019

Change the Weather History Date:

Thursday, September 19, 2019

  Actual Average Record
Temperature  
Mean Temperature 81 °F -  
Max Temperature 87 °F 92 °F 102 °F (2000)
Min Temperature 73 °F 66 °F 55 °F (1996)
Cooling Degree Days 16    
Growing Degree Days 31 (Base 50)    
Moisture  
Dew Point 30 °F    
Average Humidity 17    
Maximum Humidity 28    
Minimum Humidity 10    
Precipitation  
Precipitation 0.00 in - - ()
Sea Level Pressure  
Sea Level Pressure 29.64 in    
Wind  
Wind Speed 17 mph (South)    
Max Wind Speed 29 mph    
Max Gust Speed 37 mph    
Visibility 10 miles    
Events      
Averages and records for this station are not official NWS values.
T = Trace of Precipitation, MM = Missing Value Source: NWS Daily Summary

Daily Weather History Graph

Daily Weather History Graph

Search for Another Location

Airport or City:

Astronomy

Sep. 19, 2019 Rise Set
Actual Time 6:25 AM PDT 6:41 PM PDT
Civil Twilight 5:59 AM PDT 7:07 PM PDT
Nautical Twilight 5:29 AM PDT 7:37 PM PDT
Astronomical Twilight 4:59 AM PDT 8:07 PM PDT
Moon 10:02 PM PDT (9/19) 11:24 AM PDT (9/19)
Length of Visible Light 13h 07m
Length of Day
12h 16m
Waning Gibbous, 73% of the Moon is Illuminated
Sep 19
Waning Gibbous
Sep 21
Last Quarter
Sep 28
New
Oct 5
First Quarter
Oct 13
Full

Hourly Weather History & Observations

Time (PDT) Temp. Dew Point Humidity Pressure Visibility Wind Dir Wind Speed Gust Speed Precip Events Conditions
12:58 AM 77.0 °F 32.9 °F 20% 29.68 in 10.0 mi South 8.1 mph - N/A   Clear
1:58 AM 77.4 °F 32.2 °F 19% 29.68 in 10.0 mi South 12.7 mph - N/A   Clear
2:58 AM 76.3 °F 34.2 °F 22% 29.62 in 10.0 mi SSW 11.5 mph - N/A   Clear
3:58 AM 76.8 °F 35.8 °F 23% 29.60 in 10.0 mi South 19.6 mph 25.3 mph N/A   Clear
4:58 AM 76.1 °F 35.4 °F 23% 29.62 in 10.0 mi South 16.1 mph 23.0 mph N/A   Clear
5:58 AM 75.6 °F 36.0 °F 24% 29.66 in 10.0 mi South 13.8 mph 21.9 mph N/A   Clear
7:58 AM 75.9 °F 40.5 °F 28% 29.68 in 10.0 mi SE 16.1 mph - N/A   Clear
8:58 AM 79.0 °F 40.1 °F 25% 29.73 in 10.0 mi SSE 26.5 mph - N/A   Clear
9:58 AM 81.0 °F 38.5 °F 22% 29.72 in 10.0 mi South 25.3 mph - N/A   Clear
10:58 AM 83.1 °F 35.2 °F 18% 29.66 in 10.0 mi South 25.3 mph 34.5 mph N/A   Clear
11:58 AM 84.4 °F 31.6 °F 15% 29.71 in 10.0 mi South 27.6 mph 34.5 mph N/A   Clear
12:58 PM 86.2 °F 25.5 °F 11% 29.63 in 10.0 mi South 20.7 mph 32.2 mph N/A   Clear
1:58 PM 86.9 °F 26.1 °F 11% 29.60 in 10.0 mi South 27.6 mph 33.4 mph N/A   Clear
2:58 PM 87.6 °F 26.6 °F 11% 29.64 in 10.0 mi South 28.8 mph 36.8 mph N/A   Clear
3:58 PM 87.1 °F 26.2 °F 11% 29.64 in 10.0 mi SSE 27.6 mph 35.7 mph N/A   Clear
4:58 PM 86.4 °F 23.4 °F 10% 29.65 in 10.0 mi South 20.7 mph - N/A   Clear
5:58 PM 84.9 °F 22.3 °F 10% 29.59 in 10.0 mi South 21.9 mph - N/A   Clear
6:58 PM 82.4 °F 20.8 °F 10% 29.55 in 10.0 mi SSW 13.8 mph - N/A   Clear
7:58 PM 80.1 °F 19.0 °F 10% 29.58 in 10.0 mi SSW 10.4 mph - N/A   Clear
8:58 PM 79.0 °F 23.7 °F 13% 29.59 in 10.0 mi SSW 15.0 mph 23.0 mph N/A   Clear
9:58 PM 75.7 °F 28.9 °F 18% 29.63 in 10.0 mi WNW 20.7 mph 33.4 mph N/A   Clear
10:58 PM 75.0 °F 28.9 °F 18% 29.64 in 10.0 mi WNW 21.9 mph 29.9 mph N/A   Clear
11:58 PM 73.8 °F 28.9 °F 19% 29.67 in 10.0 mi NW 19.6 mph 25.3 mph N/A   Clear